Torna al catalogo

STARLINK-4266

AttivoComunicazioniVLEO
NORAD 52869·PAYLOAD·🇺🇸 United States

Lanciato Jun 17, 2022 da Cape Canaveral Space Force Station

Loading…

Prossimi Passaggi (prossime 24 ore)

TLE

AggiornatoSource: CelesTrak SupGP

Epoca: Sep 14, 2026, 21:32 UTC

1 52869C 22062AR  26257.89770833  .00035783  00000+0  10573-2 0  2579
2 52869  53.1568 231.6145 0001215 100.8989 234.1086 15.34369350    10

Traccia STARLINK-4266 in tempo reale con AllMySat

Download on the App Store